星链-32548 (STARLINK-32548)

导读

STARLINK-32548是美国SpaceX星链星座中的一颗卫星,于2024年11月27日发射。星链项目旨在构建全球卫星互联网星座,为全球偏远地区、高需求区域提供低延迟宽带互联网服务,该卫星是星链大规模组网部署过程中的新增单元,承担增强星座覆盖容量、扩展服务范围的作用。

基本信息
目录编号:
62120
目录名称:
STARLINK-32548
国际标识:
2024-222G
轨道中心:
EARTH
卫星名称:
星链-32548
卫星全名:
星链-32548 (STARLINK-32548)
卫星状态:
在轨 (已飞行653 天)
发射日期:
2024-11-27 UTC
国别 :
美国 (US)
星等 :
--
该卫星已列入 空间交会检测服务 Space Conjunction Data Service (SCDS) ,当前飞行风险评估等级: 高风险
轨道信息
数据来源 国际轨道数据 AOE轨道数据
星历时间 2026-09-11T12:17:13+0800
15小时前
查看轨道信息
2026-09-06T23:00:00+0800
5天前
查看轨道信息
半长轴 6861.081km 6861.163km
偏心率 0.0001442 0.0001067
轨道倾角 43.002° 42.999°
近地点辐角 279.607° 245.284°
升交点赤经 168.936° 194.652°
平近点角 80.462° 243.770°
近地点 481.954km 482.293km
远地点 483.934km 483.759km
周期 94.265分钟 94.266分钟
每日圈数 15.276152 15.275879
详细信息
固有亮度:
5
最大亮度:
2.5
卫星平台:
Starlink V1.0
覆盖范围:
全球
运营商:
太空探索技术公司
运营商所在国:
美国
制造商(研发单位):
太空探索技术公司
制造商所在国:
美国
使用方式:
暂无
卫星简介
Starlink 计划是 SpaceX 推出的全球卫星互联网项目,通过发射低轨道卫星,为全球尤其是偏远地区提供高速、低延迟的互联网服务。自 2019 年起,Starlink 已部署数千颗卫星,旨在缩小全球数字鸿沟,推动互联网普及。该项目还为军事、航空等行业提供通信支持,带来广泛经济效益。
2D轨道图
3D轨道图
轨道高度分析图
轨道倾角分析图
轨道综合分析图
查看轨道综合分析图
交会数据列表
事件ID 空间交会对象 最接近时刻(TCA) 交会距离 交会风险概率(CRP) 交会风险指数(CRI) 操作
CDM_260914-040105-684206-212021
2026-09-14T
04:01:47+0000
0.615 km
远距离
4.113966E-5 中风险 0.67
CDM_260909-110306-124206-212026
OBJECT E (61242)
2026-09-09T
11:03:11+0000
0.922 km
远距离
2.892219E-5 中风险 0.64
CDM_260910-131506-212006-653621
2026-09-10T
13:15:51+0000
0.902 km
远距离
2.888667E-5 中风险 0.64
CDM_260911-010105-669406-212022
2026-09-11T
01:01:23+0000
1.229 km
极远距离
9.841401E-6 低风险 0.55
CDM_260910-114106-212006-653621
2026-09-10T
11:41:42+0000
1.330 km
极远距离
7.571586E-6 低风险 0.53
CDM_260910-162205-670406-212021
2026-09-10T
16:22:59+0000
1.539 km
极远距离
4.602692E-6 低风险 0.48
CDM_260910-175705-670406-212021
2026-09-10T
17:57:08+0000
1.568 km
极远距离
4.340747E-6 低风险 0.48
CDM_260912-135606-212006-726921
OBJECT X (67269)
2026-09-12T
13:56:53+0000
1.752 km
极远距离
4.030566E-6 低风险 0.47
CDM_260910-131505-669406-212022
2026-09-10T
13:15:14+0000
1.751 km
极远距离
3.139333E-6 低风险 0.45
CDM_260910-152406-212006-390421
2026-09-10T
15:24:07+0000
1.567 km
极远距离
2.296173E-6 低风险 0.42
与全量物体交会距离演化趋势
与全量物体交会风险概率演化趋势